[[{"header":{"parameterUnit":"m.s-1","parameterCategory":1,"la1":30.2991,"la2":30.254,"lo1":-89.0895,"lo2":-89.0444,"dy":0.0017,"dx":0.0017,"nx":28,"ny":28,"refTime":"2024-08-10T21:00:00:Z","depth":0,"parameterNumber":2,"parameterNumberName":"U-component_of_WINDS"},"data":[0,0,0,0,0,0,0,0,0,0,0,0,0,0,0,0,0,0,0,0,0,0,0,0,0,0,0,0,0,0,0,0,0,0,0,0,0,0,0,0,0,0,0,0,0,0,0,0,0,0,0,0,0,0,0,0,0,0,1.6977,1.6978,0,1.7111,1.7113,1.7114,1.7139,1.7138,1.7137,1.7136,1.7278,1.7283,1.7287,0,0,0,0,0,0,0,0,0,0,0,0,0,1.6746,1.675,1.6977,1.6979,1.698,1.7111,1.7113,1.7115,1.714,1.7138,1.7137,1.7136,1.7277,1.7282,1.7288,0,0,0,0,0,0,0,0,0,0,0,0,0,1.686,1.6752,1.6977,1.7008,1.7013,1.7111,1.7113,1.7115,1.714,1.7138,1.7137,1.7135,1.7275,1.7282,1.7289,1.7366,0,0,1.7311,1.7314,0,0,0,0,0,0,0,0,1.6854,1.6868,1.7002,1.7006,1.7011,1.7107,1.7083,1.7199,1.714,1.7092,1.7136,1.7134,1.7223,1.7234,1.7263,1.7372,1.7378,1.7311,1.7316,1.7319,1.7321,0,0,0,0,0,0,0,1.6846,1.6863,1.703,1.7004,1.701,1.7017,1.7032,1.7105,1.7165,1.7096,1.7098,1.7113,1.7225,1.7256,1.7266,1.7381,1.7311,1.7317,1.7322,1.7325,1.7559,1.7561,0,0,0,0,0,0,1.6831,1.6856,1.7026,1.7034,1.6927,1.7023,1.7039,1.7078,1.7164,1.7176,1.7115,1.7114,1.7244,1.7258,1.7272,1.7366,1.7319,1.7325,1.733,1.7557,1.756,1.7562,0,0,0,0,0,0,1.6826,1.6846,1.7021,1.6946,1.6968,1.7028,1.7072,1.7081,1.7112,1.7178,1.7189,1.7135,1.7244,1.7261,1.7342,1.7372,1.7329,1.7335,1.7555,1.7558,1.7561,1.7557,0,0,0,0,0,0,1.682,1.6844,1.6873,1.6946,1.6972,1.7087,1.7074,1.7085,1.7124,1.7125,1.72,1.7211,1.7244,1.7331,1.7349,1.7381,1.7341,1.7552,1.7556,1.756,1.7555,1.756,1.7564,0,0,0,0,0,1.6811,1.6868,1.6875,1.6895,1.701,1.7089,1.7104,1.7139,1.7126,1.7157,1.7199,1.7209,1.7366,1.7339,1.7359,1.7394,1.7551,1.7555,1.7559,1.7553,1.7559,1.7563,0,0,0,0,0,0,1.6799,1.6878,1.6886,1.6968,1.7021,1.7093,1.7132,1.7144,1.7203,1.7201,1.7243,1.726,1.7338,1.7374,1.7343,1.7473,1.7458,1.7466,1.7446,1.7452,1.7456,1.7445,1.7347,0,0,0,0,0,1.6805,1.6862,1.6929,1.6995,1.7021,1.7072,1.7107,1.713,1.7187,1.721,1.7258,1.7314,1.7376,1.7416,1.7477,1.7561,1.7577,1.7595,1.7599,1.7602,1.7609,1.7655,1.7663,1.7576,1.7576,1.7576,0,0,1.682,1.687,1.6904,1.6993,1.7037,1.7095,1.709,1.7153,1.7196,1.722,1.7297,1.7335,1.7401,1.7482,1.7521,1.7515,1.7637,1.7608,1.761,1.7615,1.766,1.7669,1.7676,1.7579,1.7578,1.7578,0,0,1.6876,1.692,1.6979,1.7023,1.7088,1.7122,1.7136,1.7206,1.7231,1.7309,1.7327,1.7381,1.7487,1.7533,1.757,1.7643,1.7654,1.7661,1.7684,1.7729,1.7735,1.7742,1.7767,1.7775,1.7668,1.7668,1.7668,0,1.6886,1.6973,1.7008,1.7069,1.7108,1.713,1.7191,1.7232,1.7315,1.7342,1.7334,1.7466,1.7512,1.7605,1.7622,1.7652,1.7669,1.7653,1.7731,1.7738,1.7745,1.7769,1.7778,1.7669,1.7668,1.7668,1.7668,0,1.6982,1.7042,1.7083,1.716,1.7203,1.7264,1.7309,1.7349,1.7368,1.7402,1.7482,1.7537,1.7609,1.7633,1.7653,1.7728,1.7722,1.7723,1.7708,1.7753,1.7776,1.7786,1.7669,1.7669,1.7669,1.7669,0,0,1.7033,1.7129,1.7143,1.7178,1.7252,1.73,1.7362,1.743,1.7463,1.752,1.7573,1.7662,1.7662,1.7704,1.7729,1.7768,1.7821,1.7763,1.7766,1.7771,1.7907,1.7905,1.7915,1.7829,1.7831,1.7833,1.7901,0,1.7097,1.7206,1.7239,1.7331,1.7387,1.741,1.7463,1.7515,1.7549,1.7602,1.7641,1.7702,1.7698,1.7724,1.7764,1.7806,1.7848,1.7801,1.7879,1.7881,1.786,1.7928,1.7927,1.7989,1.791,1.7912,1.7913,0,1.7186,1.7242,1.7339,1.7405,1.743,1.7477,1.7543,1.7594,1.7653,1.7675,1.7721,1.7743,1.7809,1.7791,1.7883,1.785,1.7884,1.7909,1.7913,1.792,1.7899,1.7937,1.8009,1.8018,1.7928,1.7927,1.7926,0,1.7212,1.7313,1.7383,1.7413,1.7492,1.7525,1.756,1.7617,1.7656,1.7714,1.774,1.7805,1.784,1.7891,1.7929,1.7913,1.8018,1.8003,1.8038,1.8037,1.8058,1.8056,1.8136,1.8082,1.8081,1.8081,1.8081,0,1.7279,1.7338,1.7396,1.7439,1.7505,1.7543,1.7608,1.7644,1.7695,1.7746,1.7771,1.7819,1.7867,1.7922,1.7953,1.8023,1.804,1.806,1.8067,1.8057,1.8054,1.8079,1.8075,1.8084,1.8083,1.8083,1.8082,0,1.7319,1.7361,1.7439,1.7507,1.7526,1.7571,1.763,1.7674,1.7708,1.7773,1.7791,1.7846,1.7911,1.7954,1.8039,1.806,1.8136,1.8143,1.8115,1.8119,1.815,1.8146,1.8248,1.8263,1.82,1.82,1.8201,0,1.7359,1.7404,1.7477,1.7512,1.7546,1.7603,1.7643,1.7683,1.7723,1.7794,1.7828,1.7895,1.795,1.8054,1.8102,1.8167,1.8175,1.8206,1.8185,1.8173,1.8174,1.817,1.8175,1.8209,1.821,1.821,1.8211,0,1.7424,1.7442,1.7497,1.756,1.7606,1.7657,1.7709,1.7737,1.7786,1.783,1.7896,1.7939,1.8024,1.809,1.8159,1.8196,1.8212,1.8217,1.8228,1.8218,1.8199,1.8208,1.8123,1.8214,1.8214,1.8214,1.8213,1.8213,1.7465,1.7505,1.7562,1.7623,1.7666,1.7713,1.7757,1.7797,1.7852,1.7923,1.7944,1.8013,1.8071,1.8165,1.8203,1.8258,1.8255,1.8272,1.8276,1.8279,1.8278,1.8191,1.8271,1.8271,1.8271,1.8271,1.8271,0,1.753,1.7568,1.7623,1.7694,1.7742,1.7751,1.7809,1.7848,1.7908,1.7961,1.8014,1.809,1.8154,1.8207,1.8273,1.8307,1.8316,1.8323,1.832,1.8328,1.8278,1.8261,1.8315,1.8315,1.8315,1.8315,1.8314,1.8314,1.757,1.7638,1.7663,1.7754,1.7792,1.7858,1.789,1.7934,1.7976,1.8059,1.8112,1.8146,1.8199,1.8269,1.8328,1.8342,1.8365,1.837,1.8385,1.8337,1.8332,1.8327,1.8312,1.8375,1.8375,1.8431,1.8432,1.8432]},{"header":{"parameterUnit":"m.s-1","parameterCategory":1,"la1":30.2991,"la2":30.254,"lo1":-89.0895,"lo2":-89.0444,"dy":0.0017,"dx":0.0017,"nx":28,"ny":28,"refTime":"2024-08-10T21:00:00:Z","depth":0,"parameterNumber":3,"parameterNumberName":"V-component_of_WINDS"},"data":[0,0,0,0,0,0,0,0,0,0,0,0,0,0,0,0,0,0,0,0,0,0,0,0,0,0,0,0,0,0,0,0,0,0,0,0,0,0,0,0,0,0,0,0,0,0,0,0,0,0,0,0,0,0,0,0,0,0,3.5164,3.5164,0,3.5201,3.5201,3.5202,3.5202,3.5202,3.5201,3.5201,3.5234,3.5235,3.5236,0,0,0,0,0,0,0,0,0,0,0,0,0,3.5088,3.5089,3.5164,3.5164,3.5165,3.5201,3.5201,3.5202,3.5202,3.5202,3.5201,3.52,3.5233,3.5235,3.5237,0,0,0,0,0,0,0,0,0,0,0,0,0,3.5122,3.5089,3.5164,3.517,3.517,3.5201,3.5201,3.5202,3.5202,3.5202,3.5201,3.52,3.5233,3.5235,3.5237,3.5263,0,0,3.5243,3.5244,0,0,0,0,0,0,0,0,3.512,3.5125,3.5168,3.5169,3.517,3.5196,3.5187,3.5222,3.5202,3.519,3.5201,3.52,3.5222,3.5224,3.5233,3.5264,3.5266,3.5243,3.5244,3.5245,3.5246,0,0,0,0,0,0,0,3.5118,3.5123,3.5178,3.5169,3.517,3.5168,3.5172,3.5193,3.5209,3.5191,3.5191,3.5196,3.5222,3.5231,3.5233,3.5266,3.5243,3.5245,3.5246,3.5247,3.5317,3.5318,0,0,0,0,0,0,3.5115,3.5121,3.5177,3.518,3.5143,3.517,3.5175,3.5188,3.5209,3.5211,3.5196,3.5196,3.5228,3.5231,3.5235,3.5264,3.5245,3.5247,3.5248,3.5317,3.5318,3.5318,0,0,0,0,0,0,3.5113,3.512,3.5176,3.5151,3.5157,3.5172,3.5188,3.519,3.5199,3.5213,3.5215,3.5203,3.5227,3.5232,3.5255,3.5266,3.5248,3.5249,3.5316,3.5317,3.5318,3.5325,0,0,0,0,0,0,3.5111,3.5119,3.5131,3.5151,3.5159,3.5198,3.5188,3.5191,3.5202,3.5202,3.522,3.5222,3.5227,3.5252,3.5257,3.5268,3.5251,3.5315,3.5316,3.5318,3.5324,3.5326,3.5328,0,0,0,0,0,3.5108,3.5131,3.5132,3.5138,3.5174,3.5198,3.5203,3.521,3.5203,3.5214,3.5223,3.5221,3.5264,3.5255,3.526,3.5272,3.5314,3.5316,3.5318,3.5323,3.5326,3.5328,0,0,0,0,0,0,3.5111,3.5134,3.5135,3.5165,3.518,3.5198,3.5212,3.5213,3.5229,3.5227,3.5234,3.5238,3.5261,3.5269,3.5258,3.5296,3.5288,3.5291,3.529,3.5293,3.5295,3.5292,3.5253,0,0,0,0,0,3.5116,3.5135,3.5153,3.5178,3.5186,3.5198,3.5208,3.5213,3.5228,3.5233,3.5244,3.5257,3.5273,3.5284,3.53,3.5325,3.5328,3.5336,3.5338,3.5339,3.5341,3.5353,3.5356,3.5324,3.5324,3.5324,0,0,3.5124,3.5139,3.5151,3.5179,3.5191,3.5209,3.5203,3.5223,3.5235,3.5236,3.5259,3.5267,3.5282,3.5306,3.5317,3.5313,3.5351,3.5341,3.5343,3.5344,3.5355,3.5358,3.5361,3.5325,3.5324,3.5324,0,0,3.5149,3.5163,3.5184,3.5196,3.5215,3.5222,3.5227,3.5246,3.5251,3.5274,3.5274,3.5289,3.5317,3.5327,3.5336,3.5362,3.536,3.5367,3.5377,3.5389,3.5391,3.5394,3.5401,3.5404,3.5369,3.5369,3.5369,0,3.5157,3.5186,3.5195,3.5214,3.5225,3.5228,3.5247,3.5258,3.528,3.5287,3.5283,3.5317,3.5327,3.5352,3.5359,3.5367,3.537,3.5365,3.5391,3.5393,3.5395,3.5402,3.5405,3.537,3.5369,3.5369,3.5369,0,3.5193,3.5213,3.5228,3.525,3.5263,3.5282,3.5292,3.5303,3.5306,3.5313,3.5335,3.5347,3.5364,3.5371,3.5373,3.5396,3.5393,3.539,3.5381,3.5399,3.5405,3.5408,3.537,3.537,3.537,3.537,0,0,3.5221,3.5247,3.5252,3.5261,3.5281,3.5295,3.5314,3.5332,3.534,3.5355,3.5369,3.5392,3.5389,3.5399,3.5402,3.5412,3.543,3.5408,3.5408,3.541,3.5452,3.5454,3.5457,3.5429,3.543,3.543,3.5451,0,3.5247,3.5281,3.5289,3.5317,3.5334,3.5336,3.5351,3.5364,3.5371,3.5384,3.5391,3.5407,3.5403,3.5408,3.5418,3.5425,3.5438,3.5424,3.544,3.5441,3.5435,3.5461,3.5463,3.5481,3.5454,3.5454,3.5454,0,3.5281,3.5297,3.5328,3.5343,3.5351,3.5365,3.5381,3.5395,3.5408,3.5412,3.5422,3.5424,3.5441,3.5433,3.5454,3.5445,3.5452,3.5456,3.5457,3.5457,3.5448,3.5461,3.5488,3.549,3.5459,3.5459,3.5458,0,3.5295,3.5325,3.5346,3.5354,3.5374,3.5383,3.5391,3.5404,3.5414,3.5427,3.5433,3.5448,3.5455,3.5466,3.5471,3.5464,3.5491,3.5484,3.5493,3.5493,3.5498,3.5498,3.5525,3.5505,3.5505,3.5505,3.5505,0,3.5322,3.534,3.5353,3.5366,3.5386,3.5393,3.5411,3.5419,3.543,3.5443,3.5445,3.5457,3.5464,3.5476,3.548,3.5496,3.55,3.5502,3.5503,3.5501,3.5501,3.5505,3.5503,3.5506,3.5505,3.5505,3.5505,0,3.5341,3.5351,3.5374,3.539,3.5395,3.5408,3.5421,3.5433,3.5439,3.5455,3.5459,3.5469,3.5483,3.549,3.5507,3.551,3.5528,3.5528,3.5524,3.5524,3.5532,3.5531,3.5563,3.5566,3.5545,3.5545,3.5545,0,3.5357,3.5371,3.5389,3.5398,3.5407,3.5422,3.5432,3.5439,3.5448,3.5464,3.5473,3.5487,3.5499,3.5522,3.5529,3.5542,3.5542,3.5552,3.5543,3.5541,3.554,3.5538,3.5539,3.5553,3.5553,3.5553,3.5554,0,3.5383,3.5387,3.5402,3.5418,3.5429,3.5442,3.5454,3.5461,3.547,3.548,3.5495,3.5505,3.5523,3.5536,3.5549,3.5556,3.5555,3.5556,3.5559,3.5557,3.5553,3.5554,3.5526,3.5555,3.5555,3.5555,3.5555,3.5555,3.54,3.5411,3.5425,3.5441,3.5451,3.5462,3.5473,3.5481,3.5494,3.551,3.5513,3.5528,3.5539,3.5557,3.5564,3.5575,3.5572,3.5576,3.5577,3.5578,3.5577,3.5552,3.5577,3.5577,3.5577,3.5577,3.5577,0,3.5424,3.5433,3.5448,3.5465,3.5477,3.5477,3.549,3.5499,3.5513,3.5524,3.5536,3.5552,3.5565,3.5573,3.5586,3.5593,3.5593,3.5596,3.5594,3.5596,3.558,3.5576,3.5595,3.5595,3.5595,3.5595,3.5595,3.5595,3.5438,3.5458,3.5463,3.5486,3.5494,3.551,3.5517,3.5527,3.5535,3.5553,3.5565,3.557,3.5579,3.5593,3.5604,3.5606,3.5609,3.5612,3.5614,3.5599,3.5597,3.5595,3.5591,3.5614,3.5614,3.5629,3.5629,3.5629]}]]